Simultaneous Nadir Overpasses (SNOs) Predictions

Prediction of SNOs between GOES-15 and METOP-C Satellite Orbit:

Table of predicted SNOs for the next 14.0 days since TLE Epoch: 10/6/2024
Index Date Time (GOES-15) GOES-15 Lat,Lon METOP-C Lat,Lon Distance(km) Time Diff (sec)
1 10/07/2024 05:37:34 -0.31, 61.21 0.38, 58.10 354.11 80
2 10/08/2024 05:19:33 -0.30, 61.21 -0.71, 63.10 215.46 80
3 10/09/2024 17:38:32 0.30, 61.35 -0.33, 58.52 322.74 80
4 10/10/2024 17:15:12 0.29, 61.36 0.78, 63.52 246.07 80
5 10/12/2024 05:34:01 -0.30, 61.25 0.24, 58.97 260.43 80
6 10/13/2024 05:16:01 -0.29, 61.26 -0.88, 63.97 308.77 80
7 10/14/2024 17:34:59 0.30, 61.39 -0.17, 59.39 229.15 80
8 10/15/2024 17:11:39 0.29, 61.41 0.98, 64.38 339.46 80
9 10/17/2024 05:30:27 -0.30, 61.31 0.05, 59.84 167.61 80
10 10/18/2024 05:12:25 -0.29, 61.32 -1.06, 64.85 401.40 80
11 10/19/2024 17:31:23 0.30, 61.46 0.00, 60.27 136.41 80
